Wind_Speed
1 2 5 6 5 7 7 4 3 4 3 4 3 1 2 3 3 2 1 2 1 4 6 7 10 13 14 14 17 19 17 17 19 20 25 31 35 36 36 36 36 37 37 35 33 30 28 28 27 26 26 26 27 28 29 31 32 32 31 30 29 29 31 32 31 30 30 29 29 27 27 28 26 26 26 26 28 30 29 29 28 28 29 28 25 26
1 5 7 4 1 3 4 5 6 5 3 2 2 2 2 4 4 1 2 2 1 3 3 2 9 14 14 14 17 18 15 17 20 20 23 27 30 35 38 39 40 39 38 36 35 34 32 31 29 28 28 28 29 29 30 31 32 33 33 32 31 30 31 32 32 32 31 30 30 28 27 27 26 26 27 26 28 30 29 29 30 28 27 25 26 27
3 6 3 3 6 7 6 4 4 3 2 2 2 2 3 3 2 0 2 2 1 3 3 4 9 15 15 15 17 19 18 22 26 25 26 26 26 32 36 38 39 39 39 38 37 36 35 33 32 31 30 29 29 29 30 31 32 33 33 33 33 31 31 32 33 33 32 31 30 29 28 27 25 26 26 24 25 29 29 30 30 27 26 26 28 29
4 4 1 5 7 8 5 3 4 3 2 3 2 3 3 1 1 2 1 2 1 1 3 5 7 13 15 14 14 17 18 22 26 26 28 30 31 37 39 38 37 39 40 39 37 36 34 32 30 29 29 29 30 31 31 32 33 34 34 33 33 32 32 32 34 34 32 31 30 29 28 27 25 24 24 23 24 28 31 32 32 30 29 29 30 30
3 1 3 5 4 5 5 5 6 5 4 4 4 6 5 2 2 2 2 0 2 1 2 5 7 9 8 8 8 7 8 14 20 20 24 28 30 33 34 33 33 35 36 34 33 32 29 26 23 21 22 23 27 29 30 32 33 33 34 34 34 33 33 33 34 35 34 33 31 30 30 28 27 27 28 28 27 30 33 35 35 34 32 31 32 30
2 4 7 7 3 2 5 5 6 6 4 3 5 9 8 3 2 1 2 1 3 1 1 3 5 5 3 8 10 5 5 11 12 13 21 27 28 28 31 33 33 33 33 32 31 30 28 25 22 19 18 19 21 23 27 29 30 31 32 34 35 35 34 34 34 35 35 34 32 32 32 31 31 32 31 30 30 32 34 35 36 35 34 33 32 31
1 4 5 6 6 4 3 4 5 6 5 2 2 5 6 2 2 2 1 1 3 1 1 1 4 6 7 13 12 5 8 12 9 10 19 25 27 28 30 31 30 28 28 28 27 25 24 23 21 19 18 18 18 19 21 25 27 29 31 33 35 36 36 36 35 35 36 35 34 34 33 33 33 33 31 29 29 32 32 33 35 35 35 34 32 30
3 5 3 5 7 5 4 4 4 8 6 1 1 1 3 4 4 4 3 3 2 2 1 1 2 5 8 11 6 1 7 11 9 11 16 19 23 24 22 19 17 16 16 17 17 16 16 16 16 16 16 15 16 18 21 24 26 28 30 32 34 36 37 38 37 36 36 36 35 35 34 33 33 32 31 29 28 31 31 32 34 36 36 34 30 28
3 5 7 7 6 5 5 0 4 11 5 1 1 1 3 3 2 3 2 2 0 3 3 4 3 5 7 8 2 2 5 10 10 13 13 12 12 13 11 8 7 7 6 5 5 6 8 9 10 9 10 11 13 16 20 23 25 26 28 30 32 34 36 37 38 36 36 36 35 35 35 34 34 33 32 29 28 29 29 31 34 36 36 34 32 30
2 2 5 6 5 4 3 4 1 7 3 3 4 5 6 5 5 3 0 1 1 4 4 6 8 6 7 7 5 1 3 9 10 9 9 7 7 8 6 5 6 5 5 4 3 4 5 5 6 6 8 9 11 14 16 20 22 25 27 29 30 32 34 36 36 36 36 36 36 36 36 36 35 34 33 30 29 30 31 33 35 36 37 36 34 32
2 2 1 3 2 2 6 6 4 1 5 9 7 5 6 4 3 2 1 1 2 5 1 5 7 5 6 4 6 3 2 5 6 5 5 5 6 5 4 6 7 7 6 5 4 5 5 6 7 10 12 12 12 14 16 18 21 24 27 29 30 31 33 35 34 35 35 35 36 37 37 37 36 35 34 32 31 33 35 35 35 35 36 35 34 33
1 1 1 2 3 6 7 6 6 4 5 5 3 3 3 1 1 1 1 1 4 4 1 2 1 4 7 4 2 1 3 4 5 5 4 4 6 5 5 7 8 7 5 5 6 6 7 11 13 14 15 14 13 14 16 18 20 22 25 27 29 31 32 33 33 34 35 35 36 37 37 37 36 36 35 35 35 36 37 35 33 34 35 34 34 33
2 3 1 2 5 7 6 5 6 2 1 2 3 6 4 2 2 3 2 2 4 3 1 3 2 4 10 7 6 10 12 9 9 11 12 10 14 14 8 7 7 7 7 8 10 13 14 15 15 14 14 13 14 15 16 17 18 20 23 25 28 29 31 32 32 33 34 35 36 37 37 37 37 37 37 37 39 38 36 34 33 33 35 36 35 34
3 1 3 4 3 8 9 6 5 4 4 6 7 7 6 4 3 5 2 1 4 1 2 3 1 4 9 7 9 15 14 10 10 19 25 25 26 26 20 17 16 14 15 17 18 17 15 12 12 12 13 13 14 14 15 16 17 19 21 23 26 28 29 31 32 32 33 34 35 36 37 37 39 39 38 40 40 37 35 34 33 34 34 34 33 31
6 4 7 8 5 11 13 7 5 7 7 7 3 3 5 5 5 5 3 2 3 1 2 1 1 5 5 2 2 8 11 13 13 15 22 27 31 33 32 31 30 26 24 23 20 14 11 10 11 11 11 11 12 13 14 15 16 17 19 21 23 25 28 31 32 31 32 34 35 36 36 38 40 39 38 38 38 35 32 32 33 34 33 30 29 28
5 4 4 3 4 13 13 5 4 6 5 3 1 1 4 3 2 1 1 0 1 1 2 3 4 6 5 5 7 10 11 13 14 12 13 21 28 30 34 35 33 28 24 20 14 10 10 10 9 8 8 9 10 11 12 13 14 15 16 18 20 23 26 29 30 30 31 33 34 35 36 38 39 38 36 36 35 32 30 31 33 33 31 29 28 28
3 2 2 2 1 7 5 2 5 3 3 4 3 5 3 1 2 2 1 2 2 5 4 3 6 8 6 9 10 12 14 13 11 10 11 18 21 21 27 31 28 23 18 13 10 9 9 9 7 6 5 5 6 8 10 11 12 13 14 16 18 20 23 26 27 28 29 31 33 34 35 36 37 36 36 35 33 31 31 32 33 33 31 30 29 28
3 1 1 1 2 2 1 2 3 1 1 4 4 6 2 2 1 2 3 1 2 6 4 4 10 10 6 6 2 3 9 12 11 10 13 19 20 21 26 26 19 16 14 12 10 10 11 9 7 5 3 1 2 4 6 8 11 12 14 15 16 18 20 23 24 26 27 29 32 33 34 35 36 35 34 33 32 31 31 31 32 33 31 29 27 26
3 3 0 1 1 1 2 2 3 0 1 1 1 3 2 2 3 3 4 4 4 6 4 5 8 8 8 8 4 4 6 7 9 9 11 14 17 22 27 23 17 18 18 15 12 12 13 10 8 5 3 2 3 4 6 8 9 11 12 14 15 17 18 21 23 24 26 28 31 33 33 34 35 34 33 32 31 31 30 29 29 31 30 27 26 27
3 5 2 1 1 1 2 5 7 5 2 3 0 2 0 2 3 3 3 3 5 6 4 4 4 5 8 7 6 10 10 8 10 9 7 10 15 20 25 24 20 18 16 14 14 15 14 10 7 5 2 1 3 5 7 8 9 10 11 12 14 16 18 20 23 24 25 26 29 31 32 33 34 33 32 31 30 30 31 30 31 30 28 26 28 29
3 4 4 1 1 2 5 7 9 10 8 5 5 6 4 2 0 2 3 1 3 5 4 5 6 7 6 4 6 10 9 8 10 8 5 9 15 17 18 18 13 10 14 16 16 16 14 11 8 4 1 2 5 6 8 9 10 10 11 12 13 15 17 20 22 24 24 25 27 29 31 32 32 31 30 30 30 30 31 33 34 31 26 26 28 30
4 4 4 4 3 6 5 2 3 6 8 8 8 10 11 8 5 4 6 3 1 3 2 3 6 9 6 2 5 8 5 4 6 6 6 10 13 12 11 10 12 14 15 16 17 18 15 11 8 4 1 3 5 7 8 10 11 11 11 13 14 16 17 19 21 22 23 24 25 27 28 30 30 31 31 31 30 30 31 32 33 31 28 27 28 30
4 2 4 4 4 4 1 2 2 3 3 3 4 7 9 8 8 8 6 3 2 2 0 1 4 10 8 2 2 3 1 3 4 5 9 13 14 11 8 11 15 16 17 17 17 16 14 11 8 5 2 2 3 6 8 11 14 14 13 13 14 16 18 19 20 21 22 24 25 25 26 28 29 31 32 32 31 31 31 32 32 31 30 29 29 31
4 1 4 4 1 1 2 1 1 2 1 4 7 5 4 5 6 4 1 1 3 4 3 3 4 9 9 2 2 4 4 6 9 10 13 15 17 16 11 15 17 17 19 18 16 15 13 11 9 6 4 3 3 5 8 11 15 16 15 14 14 16 17 19 20 21 22 23 24 24 25 27 29 31 33 33 32 32 31 32 32 31 30 30 31 32
7 2 5 5 4 3 2 3 3 2 4 6 6 4 6 7 4 2 2 1 4 6 9 8 6 9 9 2 4 3 5 7 11 15 16 17 21 21 17 18 19 18 19 19 16 15 14 12 11 10 8 5 5 8 10 12 15 16 17 17 15 16 17 19 20 21 22 23 24 24 26 27 29 31 34 34 32 32 31 31 31 30 30 31 33 35
7 3 5 7 7 7 7 6 5 5 5 3 4 6 10 13 11 6 4 5 6 8 10 9 8 10 12 5 4 4 5 6 12 17 18 20 24 24 20 21 23 22 22 21 18 18 18 17 16 14 10 6 8 11 11 12 15 17 18 18 18 17 18 19 20 21 22 23 24 25 26 28 30 31 34 34 33 32 31 30 30 29 30 32 33 34
2 2 6 9 10 10 11 9 3 6 7 8 10 12 12 14 15 10 6 7 10 10 10 10 11 15 20 16 11 9 7 7 9 13 17 22 25 24 23 24 26 26 24 23 22 23 23 22 20 16 13 11 10 12 12 12 16 18 19 19 19 19 19 19 20 21 22 24 25 25 26 28 29 31 33 34 33 32 32 31 31 30 30 31 32 33
3 3 7 10 13 14 15 15 5 8 10 13 14 15 13 13 14 13 11 13 12 10 11 13 16 19 20 19 20 17 10 7 6 10 17 22 24 25 26 26 27 28 28 27 28 29 28 26 22 18 17 16 14 15 14 14 16 19 21 21 20 20 20 20 20 21 22 24 25 26 26 27 28 30 32 32 32 32 33 32 32 33 32 32 33 33
2 5 9 10 13 14 17 18 9 6 9 10 12 14 14 14 15 16 17 18 16 13 13 16 20 20 17 18 23 20 12 9 12 17 22 22 22 25 28 27 26 28 31 32 32 33 33 29 24 22 21 19 19 21 20 18 18 21 23 22 21 21 21 21 21 21 23 24 25 25 26 26 27 29 31 32 32 33 34 34 33 34 34 34 35 34
4 5 10 11 12 15 18 19 13 9 8 8 9 10 9 12 17 19 19 21 23 21 16 17 22 20 17 19 21 19 17 16 18 20 21 21 23 26 27 27 27 30 33 36 37 36 34 29 29 29 27 24 24 27 28 25 22 22 24 24 23 22 22 22 22 22 23 23 24 25 25 26 26 28 30 32 34 34 35 35 34 34 35 34 33 33
5 5 6 6 8 14 18 19 18 12 7 8 8 7 8 11 15 19 19 18 20 19 17 18 20 19 18 16 14 19 21 15 13 15 19 24 29 31 30 29 30 31 31 34 36 36 33 31 33 35 33 29 29 31 34 32 27 25 26 26 26 25 24 24 24 24 24 23 24 25 26 26 27 28 30 32 33 34 35 34 33 33 34 35 33 32
4 3 1 2 6 11 15 18 17 10 4 6 10 11 13 14 13 13 13 12 14 16 16 17 16 16 15 9 9 19 18 10 12 17 22 29 33 33 34 33 33 33 32 33 35 36 37 37 38 39 37 34 32 34 37 36 32 29 28 28 28 26 25 26 25 25 25 24 25 26 26 27 27 28 29 31 32 33 34 34 33 33 34 35 34 32
6 4 3 4 6 10 15 15 11 7 4 7 14 19 21 19 14 10 9 13 18 17 15 14 13 14 17 12 12 16 12 9 14 19 23 29 32 33 36 37 38 38 37 38 41 44 46 46 43 42 40 37 35 36 37 37 38 36 30 28 28 28 27 27 27 26 26 25 26 27 27 28 27 27 28 29 30 32 33 34 33 32 33 33 33 32
7 7 5 5 4 8 13 8 3 7 10 11 14 18 20 18 16 16 17 19 20 17 13 13 12 13 16 17 15 14 11 13 20 26 30 32 33 34 37 40 41 41 42 44 46 48 50 49 46 43 41 37 36 36 37 38 40 38 32 29 29 29 29 29 28 27 27 26 27 27 28 27 27 27 28 28 30 32 33 33 31 29 30 32 32 31
7 8 6 4 3 5 7 4 5 9 11 9 8 11 14 15 18 22 24 23 21 18 16 16 18 19 20 22 22 18 17 20 24 30 35 36 37 38 38 39 41 41 44 47 47 48 49 47 43 39 36 36 36 37 39 38 37 35 33 31 30 29 30 29 28 27 26 26 26 26 27 27 26 27 27 28 30 31 32 32 30 27 27 29 30 29
9 8 5 4 4 4 4 6 8 6 5 5 5 5 7 12 16 18 18 21 21 19 17 18 22 25 25 27 29 26 24 23 24 33 42 41 39 40 39 42 44 44 47 49 47 45 43 38 36 35 35 37 37 37 36 33 31 30 29 28 28 27 27 27 26 26 25 25 25 25 25 25 25 26 27 27 29 30 30 31 31 28 25 26 27 27
12 9 5 5 5 5 6 8 7 8 9 8 10 10 8 10 13 12 12 18 19 17 18 19 22 26 24 26 30 27 22 16 15 33 50 45 38 43 47 49 50 47 47 48 44 40 36 34 35 36 36 36 34 31 29 26 26 26 25 25 25 24 24 25 25 25 24 24 23 22 22 22 23 24 25 26 27 28 28 29 29 29 26 25 26 25
13 11 8 7 6 6 8 8 7 10 10 10 15 17 13 13 13 10 10 14 15 18 22 19 21 24 21 23 25 18 13 9 7 25 45 39 35 45 50 50 51 49 48 48 43 39 37 37 37 35 32 30 27 24 23 22 22 23 23 23 23 21 21 22 22 23 22 21 20 20 20 20 20 21 22 23 23 24 25 25 26 27 27 26 25 24
16 13 11 9 7 8 9 7 8 9 8 9 15 14 11 16 13 8 7 11 14 23 26 19 19 22 20 23 21 11 7 7 7 22 39 34 31 38 40 39 42 43 46 48 44 40 39 35 32 29 26 24 23 22 22 21 21 22 22 21 21 20 19 19 19 19 18 18 18 17 17 17 17 17 18 18 19 20 21 22 23 24 25 24 23 21
15 10 11 10 8 10 11 8 7 8 6 8 12 9 9 18 17 10 7 10 15 25 25 20 20 23 25 29 20 9 9 12 15 29 39 30 24 28 28 29 31 32 36 40 38 35 32 27 25 24 23 22 22 21 21 21 21 21 20 19 18 18 17 17 16 16 16 16 16 16 15 14 13 14 14 14 15 16 17 19 20 21 21 20 18 16
9 8 9 9 8 12 13 9 7 6 4 7 12 9 13 17 13 9 10 12 17 23 21 22 28 30 32 30 18 13 22 32 35 43 41 27 21 23 22 23 24 23 26 28 27 26 24 22 23 22 22 22 21 20 20 19 18 18 17 16 15 15 15 15 15 15 15 15 15 14 14 13 13 12 12 12 13 14 15 16 17 17 17 15 14 13
6 5 5 7 8 9 9 8 8 6 5 10 17 13 13 11 7 8 13 18 21 21 19 21 29 32 34 32 27 28 36 42 45 48 45 36 29 24 21 21 21 21 22 23 23 23 22 21 22 21 20 20 19 18 17 16 15 15 14 13 14 14 14 13 13 14 14 14 14 14 15 15 15 15 14 14 14 14 15 15 15 15 14 13 13 13
5 4 4 6 7 7 7 9 9 5 4 11 15 8 8 11 13 11 11 15 17 18 20 20 22 26 29 31 33 36 39 40 41 43 43 40 33 27 24 22 21 21 21 21 22 22 21 21 20 19 18 18 16 15 15 14 14 13 13 13 13 13 13 13 13 14 14 15 15 16 17 17 18 18 17 16 15 15 15 15 15 15 15 14 14 14
4 4 4 4 4 5 7 6 3 2 5 9 9 4 4 13 19 15 13 12 13 16 18 19 20 22 26 28 31 34 35 38 40 40 39 37 33 29 26 23 22 22 23 22 22 22 21 21 20 18 17 16 15 14 13 13 13 13 13 13 14 14 15 15 16 16 17 18 18 19 19 19 19 19 19 18 17 17 17 17 17 17 17 16 16 16
5 4 3 3 2 3 4 5 8 12 14 17 16 16 19 23 26 27 24 19 19 19 17 18 20 21 22 26 30 31 33 35 37 39 38 35 32 29 25 23 24 24 23 23 22 21 20 20 19 18 17 16 16 15 15 14 13 14 14 15 16 17 17 18 18 19 20 20 21 21 21 21 21 21 21 20 19 19 19 19 19 19 19 19 18 17
4 5 5 3 2 3 5 8 10 14 19 24 28 29 28 28 30 32 31 29 28 26 23 22 22 21 21 24 27 30 33 33 33 35 34 31 29 27 26 25 25 24 23 23 22 21 21 19 18 18 18 18 18 17 17 17 16 16 16 17 18 18 18 19 20 21 21 22 22 23 23 23 23 23 22 22 21 20 20 20 20 20 20 20 19 18
4 7 5 3 3 4 6 7 8 12 19 25 31 33 30 27 26 28 30 32 32 32 30 29 27 26 24 23 24 27 31 31 30 30 29 27 27 26 25 25 24 23 23 22 21 21 20 19 19 19 19 20 20 20 20 20 19 18 17 18 19 19 20 20 20 21 22 22 23 24 24 25 25 25 24 23 22 22 20 19 19 19 18 18 17 16
4 6 6 4 6 6 6 8 14 20 23 25 29 30 26 23 23 25 27 29 30 30 30 29 29 28 26 25 24 24 26 26 25 25 25 26 26 26 24 24 23 22 22 21 21 21 20 20 20 21 21 21 22 21 21 21 21 20 19 19 19 20 20 20 21 21 22 23 24 25 25 25 25 25 25 24 23 22 21 19 18 17 15 14 13 12
9 5 4 4 5 5 6 8 13 16 16 18 21 21 19 22 26 27 28 28 28 27 25 25 24 22 19 19 18 18 19 19 19 21 23 24 24 24 23 23 22 22 22 22 22 21 21 21 22 22 22 22 21 21 21 21 21 21 20 19 20 21 21 22 23 23 24 25 25 25 25 25 24 24 23 23 22 21 19 18 16 15 14 13 13 12
8 6 6 6 7 6 5 7 9 7 7 14 20 21 23 27 27 26 27 28 27 24 21 20 19 14 10 8 8 9 10 10 11 15 18 20 21 21 21 20 21 22 22 22 23 23 23 23 23 22 21 21 21 20 20 20 21 21 21 20 21 21 22 23 24 24 24 24 24 24 24 24 23 22 21 20 20 19 18 18 17 16 15 15 15 14
11 9 9 9 8 9 12 16 16 9 9 20 30 31 31 32 27 25 27 28 25 23 20 18 16 13 11 9 9 8 7 6 6 7 10 13 14 15 16 16 17 19 20 22 23 24 24 25 24 22 20 19 19 19 19 20 21 22 22 22 22 22 22 22 23 23 23 23 22 22 22 21 21 20 19 18 18 17 17 18 18 18 17 16 16 15
Wind_Direction
112 181 199 211 209 192 188 182 118 88 87 111 126 189 216 245 254 208 91 33 11 265 255 250 265 269 268 269 269 272 274 269 266 265 267 271 273 272 270 268 266 264 264 264 265 264 259 257 256 255 254 251 248 244 242 242 243 245 247 248 247 244 242 242 241 241 240 240 240 237 234 234 232 226 224 219 214 213 215 218 221 219 216 217 224 230
148 217 225 219 105 120 142 118 109 112 98 120 170 219 227 238 249 145 62 28 82 265 269 301 290 276 268 268 268 269 269 264 261 258 262 266 269 270 270 270 269 268 268 269 268 266 263 260 258 256 253 251 250 247 245 244 245 246 247 249 247 245 243 242 241 241 241 240 242 241 239 238 233 226 226 221 215 216 218 217 216 216 218 227 235 233
203 228 233 103 94 91 99 127 142 137 136 153 177 229 245 237 242 149 63 33 91 247 289 3 309 285 278 271 264 260 257 261 263 259 262 265 266 267 268 269 270 271 271 270 268 267 266 264 262 259 255 252 251 249 247 246 246 246 247 249 249 247 246 243 242 241 241 241 241 241 239 238 234 229 228 224 219 217 214 212 215 220 225 233 235 231
197 237 2 107 135 124 106 151 156 142 179 198 199 220 237 184 228 245 82 63 105 245 307 334 304 287 282 271 261 253 248 259 267 266 267 267 265 265 266 268 269 270 272 272 272 271 270 269 267 264 259 254 250 247 247 245 245 245 247 248 249 249 247 245 243 242 241 241 239 238 236 233 231 230 227 227 222 213 209 214 222 227 227 232 234 231
187 51 91 125 148 143 134 162 175 185 210 219 217 225 239 207 207 258 36 336 216 152 312 307 289 277 276 274 270 252 236 257 267 272 274 269 265 267 269 269 268 268 270 272 273 273 273 272 270 267 261 254 249 246 246 246 247 247 247 248 248 248 246 245 244 243 242 240 238 234 230 225 221 219 221 224 221 211 211 217 223 227 227 233 235 230
209 109 134 132 103 129 146 171 194 203 216 226 219 228 244 245 168 194 53 324 262 203 47 327 285 270 295 283 271 252 242 259 259 260 269 270 267 267 269 269 270 270 270 271 271 271 271 270 267 263 258 252 247 245 244 245 247 247 247 247 247 247 246 245 245 244 242 241 239 235 232 228 223 220 222 223 222 218 217 219 223 229 231 230 228 225
162 127 139 142 145 143 163 211 204 198 218 234 218 231 239 223 146 187 169 259 274 291 35 1 291 289 303 287 278 267 263 267 261 250 258 264 267 267 270 272 273 273 272 271 269 267 265 263 260 258 255 252 247 243 242 241 242 243 243 243 244 245 245 245 244 243 241 240 239 238 236 235 232 230 230 227 223 222 223 223 224 228 227 223 222 226
128 147 150 142 148 150 183 219 189 186 206 210 35 306 189 176 187 188 184 228 280 338 264 181 247 269 279 281 290 16 273 272 267 260 256 256 262 268 274 276 272 268 265 263 261 257 253 251 250 249 248 246 242 239 237 236 237 239 241 242 241 242 243 243 243 242 241 239 238 237 236 233 232 233 234 230 223 220 221 221 221 221 220 223 228 235
115 173 182 161 159 178 186 187 165 181 198 4 22 54 117 135 142 139 159 202 32 320 257 168 173 248 257 253 249 64 283 274 264 262 261 253 256 267 274 268 253 243 238 246 246 235 233 233 232 234 236 240 241 240 238 237 237 238 240 242 242 243 243 243 243 242 240 239 238 236 234 231 229 228 230 229 224 221 216 215 216 219 224 231 236 241
54 183 195 177 181 189 145 38 173 194 179 133 144 100 89 82 76 91 131 118 132 272 246 164 177 250 270 230 204 138 265 266 262 259 267 280 283 275 261 228 209 189 162 146 148 172 192 202 214 236 252 259 257 252 248 244 241 238 238 240 241 241 242 242 242 242 241 239 237 235 233 231 230 228 227 225 221 218 215 216 221 226 232 236 236 240
54 82 170 204 211 132 105 64 20 26 123 143 151 106 94 83 66 72 41 41 265 261 223 150 184 249 289 214 184 179 224 261 269 266 274 306 306 276 214 193 184 163 155 158 166 177 194 222 244 261 270 273 267 257 253 249 244 240 237 237 238 239 241 242 242 241 241 239 237 236 234 232 231 230 229 225 218 217 218 222 227 229 230 230 233 237
57 152 155 196 158 115 107 81 46 55 128 149 159 136 126 110 116 151 86 121 252 246 83 31 319 261 257 221 154 286 291 277 279 289 297 313 298 259 183 178 175 169 184 191 201 224 251 268 271 272 275 274 266 257 253 252 250 245 241 239 239 238 240 241 241 240 240 239 237 236 234 233 231 231 230 227 223 222 224 226 226 226 227 229 232 235
203 203 122 117 153 161 151 103 75 66 206 218 166 161 192 219 201 240 214 174 244 240 73 342 332 249 253 267 291 277 265 249 240 255 268 276 277 269 237 202 194 202 227 236 249 268 281 283 278 273 271 266 259 254 253 253 252 249 246 243 242 241 240 240 240 239 239 239 238 236 234 232 231 231 230 227 227 228 228 227 227 228 230 230 232 235
207 225 138 150 175 196 193 160 150 177 198 200 180 174 196 196 209 235 201 223 273 259 52 342 273 246 272 288 270 261 266 267 243 243 251 256 263 266 259 249 248 250 255 260 270 282 286 278 268 262 260 256 253 252 252 252 251 250 248 246 245 243 242 241 241 240 239 239 238 237 234 230 230 231 229 227 229 229 226 228 231 233 232 230 234 241
218 247 177 171 161 180 199 206 167 151 171 198 191 181 205 196 212 229 201 234 267 91 76 335 239 229 251 333 266 259 281 292 275 248 245 249 254 259 262 261 260 259 262 269 277 283 275 262 256 254 252 251 250 249 251 254 254 253 252 251 249 246 244 243 243 241 240 239 238 237 235 231 232 232 230 229 231 230 226 228 231 231 231 232 240 247
230 265 168 148 139 167 186 202 135 129 164 198 55 215 233 216 188 239 327 189 50 4 209 200 249 242 243 301 286 267 274 281 274 259 246 248 249 252 259 262 262 262 264 269 273 268 254 247 241 237 242 247 250 253 256 258 259 259 258 256 254 250 247 247 246 244 242 241 240 239 236 235 235 234 231 228 230 229 224 225 229 231 233 237 243 244
216 282 81 44 149 173 185 158 153 171 175 160 170 199 230 345 98 139 198 78 78 267 241 182 252 269 281 281 262 249 257 258 258 260 255 256 252 248 252 256 260 263 259 255 258 249 232 218 208 210 222 243 256 264 265 266 266 265 263 261 259 255 252 251 250 247 245 243 242 241 239 237 238 236 233 230 230 228 224 226 230 233 235 235 236 235
211 264 63 94 186 192 346 73 116 346 94 143 190 188 146 21 35 190 226 168 178 246 252 195 237 259 272 270 229 182 244 252 254 258 260 262 260 253 252 253 250 243 236 244 250 228 203 187 175 167 145 80 331 312 296 285 279 274 271 268 264 261 257 256 254 251 248 246 244 243 240 239 239 237 233 232 230 227 227 230 229 228 228 227 231 233
201 237 220 70 251 123 81 161 162 103 51 59 222 167 129 216 205 189 212 216 207 227 242 215 229 247 243 246 258 224 227 245 255 249 249 258 257 253 256 257 251 239 236 243 234 203 186 173 159 145 119 58 8 348 328 312 299 289 284 278 272 268 262 258 257 253 249 247 245 244 242 240 240 238 233 231 228 225 226 228 226 225 225 229 237 237
169 231 232 79 313 78 122 210 200 171 109 26 351 161 335 262 212 185 188 213 223 219 228 230 224 238 233 226 243 249 239 229 239 240 238 250 253 256 261 265 265 250 231 218 205 192 183 170 158 149 125 30 348 336 327 318 310 300 291 284 277 272 265 260 258 255 251 248 245 244 243 241 240 238 234 230 228 225 223 225 226 225 226 234 239 235
133 222 229 108 342 207 186 208 204 181 163 169 194 184 191 213 246 272 231 187 238 226 222 240 248 255 249 195 207 241 246 232 235 241 242 250 257 264 270 265 249 208 188 187 188 187 182 172 164 161 183 313 316 318 319 314 309 303 294 287 279 273 268 264 262 261 256 251 248 245 243 242 240 238 234 230 229 227 226 228 228 226 229 237 237 230
176 202 205 157 179 205 199 204 227 201 181 184 194 191 197 190 159 216 224 177 260 255 224 241 261 266 267 145 196 230 241 246 239 235 248 257 260 269 272 240 195 175 179 181 179 181 177 172 169 165 202 292 292 295 303 307 306 301 294 288 281 274 270 267 266 266 262 256 252 248 244 242 240 235 232 230 230 228 227 229 228 229 236 239 235 227
161 164 206 193 196 205 178 44 3 295 268 247 233 210 207 197 184 208 219 172 165 206 261 305 270 269 266 139 164 235 262 299 271 234 243 252 259 271 255 206 188 180 181 179 178 180 175 172 174 167 174 243 273 285 297 305 304 298 286 282 282 277 273 271 268 268 265 261 257 252 247 244 239 235 232 229 228 227 226 227 227 232 237 236 233 227
126 139 219 219 215 123 56 70 81 357 297 244 250 229 212 220 213 220 219 137 195 178 189 224 236 266 271 142 129 266 276 283 266 242 242 250 261 270 249 211 201 190 185 184 184 185 180 180 185 191 210 234 287 318 316 303 297 294 284 277 277 276 273 271 269 267 265 263 260 254 248 244 239 236 232 228 228 228 227 227 230 234 236 234 231 227
164 192 210 211 230 204 185 202 201 199 199 227 245 200 196 217 196 98 91 188 235 200 199 223 232 253 265 118 113 233 248 261 251 239 241 249 256 261 250 224 214 203 196 194 192 193 194 198 204 214 228 250 317 333 324 300 289 289 285 277 274 272 269 268 268 267 264 262 260 256 249 244 239 235 232 229 228 228 228 228 232 235 234 232 230 226
178 207 187 196 225 219 213 220 205 189 183 213 245 203 200 204 185 168 188 202 223 215 206 221 235 250 259 240 161 198 214 242 248 243 244 248 252 255 249 230 218 212 207 202 201 206 207 212 218 224 236 266 315 321 315 300 288 285 283 279 275 273 269 267 268 267 264 261 259 256 251 245 240 236 232 229 227 227 227 229 232 234 233 232 231 227
152 278 207 208 227 228 238 248 183 127 156 191 217 213 206 205 196 192 209 211 219 229 226 221 224 245 257 256 251 239 210 214 242 244 244 248 251 252 246 231 222 222 220 210 210 215 218 224 229 235 251 270 295 303 301 297 289 283 280 279 275 273 269 266 267 267 265 262 258 256 253 248 243 239 234 230 227 227 228 230 232 234 233 232 232 233
105 257 228 230 239 242 256 260 213 147 185 204 211 212 206 201 198 199 217 222 217 228 239 225 219 235 251 259 261 255 229 204 224 236 241 247 250 250 250 245 235 230 227 221 220 224 229 237 243 250 261 270 283 293 294 293 289 281 277 276 275 273 269 265 263 264 263 261 258 255 254 252 247 241 237 232 229 228 230 232 232 232 233 232 232 235
141 240 234 240 251 254 262 266 249 188 208 216 214 218 209 194 191 200 217 223 219 223 234 233 232 236 243 252 257 254 242 227 231 236 241 248 252 253 256 258 253 243 235 231 231 232 236 249 262 265 267 273 283 290 294 292 288 280 273 272 273 271 268 265 262 262 262 262 261 257 254 253 250 243 238 233 229 228 231 234 234 232 232 234 233 234
164 232 240 241 258 263 262 265 260 236 236 244 234 233 226 204 197 203 214 220 222 226 230 238 245 245 239 241 250 257 260 257 249 242 241 246 253 257 260 263 262 257 247 239 236 237 243 259 271 269 268 275 283 289 294 292 287 279 272 269 269 266 263 261 260 259 261 262 262 259 254 252 250 245 239 233 229 229 231 234 236 233 232 235 236 235
184 221 242 230 251 261 258 259 260 250 241 247 245 240 238 225 211 213 220 222 226 233 238 243 250 254 247 242 255 269 269 263 251 240 236 242 247 250 255 259 259 259 252 242 240 245 255 266 270 268 269 276 282 288 290 288 284 278 270 264 263 261 258 257 256 255 257 258 259 257 253 251 248 245 241 236 232 231 232 234 237 235 233 234 236 236
197 216 116 168 229 249 249 250 254 254 243 255 258 243 228 224 217 216 222 226 228 234 240 242 245 253 254 246 255 265 260 240 233 232 234 242 245 243 247 251 253 252 249 246 250 257 265 267 266 266 268 274 281 283 282 281 281 278 269 261 258 257 254 253 253 251 251 253 253 253 251 249 247 245 244 239 234 233 234 235 237 237 233 232 234 236
182 184 187 200 218 244 249 249 253 259 252 249 248 239 231 229 226 223 227 230 229 227 229 235 233 240 253 254 249 252 244 222 233 236 236 243 246 245 245 246 247 248 248 251 256 260 265 265 263 264 269 273 277 276 274 274 276 276 270 259 255 255 253 252 251 249 248 249 250 250 248 247 245 244 243 241 237 234 233 235 238 238 234 231 234 238
177 181 205 208 207 247 253 248 227 236 238 238 238 237 238 238 234 233 234 231 227 221 224 242 251 253 256 254 249 251 250 244 247 249 249 249 247 246 246 246 246 248 251 254 257 260 262 263 263 266 270 272 271 270 269 270 271 272 269 261 257 255 255 254 252 249 247 247 247 247 246 245 244 243 242 240 238 234 233 235 239 240 235 233 236 240
181 189 204 202 205 251 256 228 214 227 230 241 252 245 241 238 232 234 240 240 235 227 228 243 256 258 253 249 251 259 269 268 263 259 258 255 250 247 247 249 250 252 255 257 258 259 260 262 264 267 268 268 267 267 267 267 267 267 266 264 261 257 256 255 253 250 248 246 245 244 243 243 242 241 241 239 237 235 233 233 236 238 236 234 236 240
204 200 202 197 206 236 238 222 230 249 261 275 284 256 227 229 233 235 244 248 241 232 231 235 241 245 246 249 256 263 271 276 275 267 261 255 250 248 248 252 255 256 259 260 259 259 260 261 263 264 264 265 265 264 264 263 262 262 264 265 263 258 254 252 250 249 248 246 243 241 240 240 240 240 239 238 237 235 232 231 232 234 235 236 238 240
217 210 205 212 207 209 230 234 245 275 283 273 260 244 210 207 221 219 233 249 243 229 227 231 238 244 246 252 258 262 267 275 279 270 264 257 249 250 252 255 258 259 260 261 260 259 260 260 261 262 262 261 260 258 258 256 256 259 261 261 261 258 253 249 247 246 245 242 239 238 238 238 237 237 238 237 236 234 232 230 230 232 233 235 239 242
215 211 205 213 206 199 225 241 243 251 252 243 248 249 231 218 217 199 213 248 256 241 230 229 241 247 250 257 256 249 250 260 263 268 268 262 253 254 255 256 258 259 259 259 259 259 260 260 260 259 257 253 251 249 249 250 253 256 258 259 259 255 250 246 243 241 239 237 235 234 234 234 233 234 235 235 235 234 232 229 229 231 234 236 240 242
214 214 207 217 220 210 220 227 225 235 240 236 248 254 225 202 188 163 203 240 256 250 238 228 239 246 248 251 243 207 206 247 247 263 268 267 259 258 258 258 259 259 258 257 258 259 260 259 255 250 246 244 244 244 247 250 251 253 254 255 253 250 246 242 237 235 232 230 228 227 226 225 225 228 230 231 232 232 230 227 226 228 234 238 241 242
213 214 214 221 218 214 224 229 228 239 240 233 248 253 194 177 165 157 211 229 244 251 240 219 225 238 241 241 231 184 198 228 241 260 266 268 265 262 260 259 259 256 255 255 255 256 255 248 242 239 239 241 243 245 247 249 249 250 250 249 246 243 238 233 228 224 221 218 217 215 213 211 211 213 217 219 222 223 223 223 223 227 232 237 240 239
210 209 213 218 215 218 225 230 238 241 220 236 255 234 171 164 166 181 212 223 241 252 243 217 216 226 234 234 219 200 224 234 243 256 262 266 268 263 259 258 256 250 246 246 246 245 240 234 235 237 239 242 243 243 245 245 245 244 241 238 236 231 226 222 217 214 212 209 205 202 197 192 189 191 194 197 203 208 209 211 215 221 226 229 228 225
216 211 210 216 221 223 221 228 251 252 194 219 245 227 168 166 205 223 227 238 247 253 250 228 217 220 229 231 221 222 235 243 248 252 256 259 261 259 255 252 247 239 235 233 232 232 230 232 237 239 239 240 238 237 238 237 235 232 228 223 220 215 212 209 205 202 199 194 190 185 180 175 172 172 176 179 184 190 195 198 202 205 208 209 208 206
201 204 219 212 215 228 226 226 239 245 198 222 237 221 163 201 234 249 257 259 259 260 259 247 229 222 227 231 230 233 240 246 249 250 252 254 256 253 247 240 236 235 233 227 225 228 232 235 236 234 233 232 229 227 225 221 219 217 210 206 201 197 193 189 185 183 180 177 174 170 167 166 163 162 164 167 171 176 180 183 186 186 187 188 188 186
191 205 229 216 211 229 227 220 230 295 315 295 281 298 285 252 258 286 307 288 270 269 265 260 251 239 232 233 237 239 241 245 247 249 250 251 250 245 237 229 228 231 230 227 227 229 231 231 227 223 222 219 216 213 207 202 201 197 191 186 181 176 174 171 169 168 167 165 164 161 160 158 156 155 156 158 162 166 168 171 174 174 173 174 174 174
204 186 190 212 235 233 227 266 297 297 307 318 317 316 317 305 297 306 314 302 284 279 277 276 273 260 244 242 244 244 245 247 248 248 248 247 243 238 232 228 229 229 230 231 230 225 222 220 217 215 211 205 201 196 188 181 181 180 175 170 167 166 165 163 162 161 160 159 158 157 155 153 152 152 153 155 159 161 163 165 167 166 166 167 167 169
209 163 137 157 229 272 256 255 274 288 299 308 308 306 308 310 306 307 308 302 294 287 281 279 280 276 266 260 257 253 252 252 251 249 247 243 237 233 231 230 229 228 228 227 222 217 212 208 205 204 201 194 187 181 173 167 166 169 167 162 161 162 161 161 159 158 157 156 154 153 152 151 151 151 153 155 157 160 162 163 164 164 163 162 162 165
226 192 181 206 217 249 271 252 248 274 288 296 300 299 300 306 312 310 303 297 294 292 287 280 278 279 278 274 270 265 261 259 258 254 247 238 231 229 229 228 226 225 223 217 213 211 206 200 197 196 193 187 179 171 166 161 160 165 166 163 163 163 160 160 159 156 155 153 151 151 151 151 151 152 153 155 157 159 160 162 163 163 162 161 165 170
263 202 197 224 214 219 259 271 269 275 281 286 288 287 290 303 312 311 304 296 290 290 291 284 277 278 280 277 273 269 265 264 263 256 246 234 226 222 221 220 219 218 214 209 208 206 201 196 194 190 186 181 174 167 165 163 162 166 168 167 167 164 161 160 157 155 154 153 152 152 153 153 155 155 156 157 158 159 160 162 164 167 168 171 176 181
317 300 243 248 249 247 265 276 279 284 286 285 279 274 284 303 306 303 301 297 286 284 288 287 283 282 282 280 276 268 264 264 260 248 236 227 221 218 217 215 213 212 209 204 202 200 196 191 188 184 182 179 173 170 170 169 168 170 170 170 168 165 162 160 157 156 156 155 155 156 156 157 159 160 160 161 161 161 164 167 170 173 176 180 184 186
293 291 270 269 273 271 264 261 270 281 286 283 280 279 289 300 301 296 294 292 286 282 282 280 280 281 282 290 293 279 273 276 268 250 237 230 226 224 220 214 209 207 203 198 196 193 189 184 183 183 182 180 176 175 174 174 173 171 170 169 168 165 163 161 158 158 158 158 159 160 160 161 163 165 167 169 170 172 174 175 177 179 181 184 186 187
241 242 254 262 264 265 269 271 269 261 265 278 283 286 291 295 294 290 289 289 285 281 276 269 266 265 269 286 297 292 290 303 300 268 242 232 230 226 221 215 210 205 200 195 192 188 181 179 181 183 183 183 181 178 176 176 174 171 169 168 167 165 164 163 162 161 162 163 164 166 167 169 171 174 177 179 181 184 185 183 181 180 180 181 180 179
Height
1552 1553 1553 1552 1551 1550 1552 1552 1554 1557 1557 1557 1559 1561 1562 1562 1559 1559 1562 1565 1566 1562 1556 1554 1553 1548 1545 1542 1539 1539 1538 1537 1536 1534 1533 1532 1531 1530 1529 1529 1528 1528 1529 1530 1532 1533 1534 1534 1535 1535 1535 1536 1536 1537 1538 1539 1540 1541 1542 1543 1544 1545 1545 1546 1547 1548 1549 1550 1550 1551 1552 1552 1553 1554 1556 1558 1559 1561 1563 1564 1566 1567 1568 1570 1571 1572
1553 1554 1551 1548 1549 1551 1554 1556 1557 1559 1560 1559 1560 1561 1563 1564 1560 1560 1564 1565 1566 1563 1555 1554 1554 1546 1542 1539 1536 1536 1535 1531 1530 1529 1528 1527 1527 1526 1524 1524 1524 1524 1525 1526 1527 1528 1529 1530 1531 1531 1531 1532 1532 1533 1534 1535 1536 1537 1538 1539 1540 1541 1542 1543 1544 1545 1546 1547 1548 1549 1549 1550 1550 1552 1553 1555 1557 1558 1560 1562 1563 1564 1566 1567 1568 1569
1555 1553 1549 1550 1553 1555 1558 1559 1558 1559 1561 1560 1561 1563 1562 1562 1560 1561 1565 1565 1566 1563 1555 1557 1556 1543 1536 1535 1531 1531 1530 1525 1524 1524 1523 1523 1523 1521 1520 1519 1519 1520 1520 1521 1522 1522 1524 1525 1526 1527 1527 1528 1529 1530 1530 1531 1532 1533 1534 1535 1536 1537 1539 1540 1540 1541 1542 1543 1545 1546 1547 1547 1548 1549 1551 1553 1554 1556 1558 1559 1560 1561 1563 1564 1565 1567
1555 1552 1551 1554 1555 1556 1559 1562 1560 1560 1561 1560 1561 1562 1560 1561 1561 1558 1562 1566 1566 1564 1560 1561 1559 1543 1530 1528 1524 1524 1524 1521 1520 1520 1519 1519 1517 1515 1515 1515 1515 1515 1515 1515 1517 1517 1518 1520 1521 1521 1522 1523 1524 1525 1526 1528 1528 1529 1530 1531 1533 1534 1535 1536 1536 1537 1539 1540 1541 1542 1544 1545 1546 1547 1548 1550 1552 1553 1555 1556 1557 1558 1559 1561 1563 1564
1550 1552 1554 1556 1555 1555 1559 1562 1561 1559 1559 1561 1561 1559 1557 1559 1561 1558 1561 1565 1564 1565 1565 1562 1556 1539 1526 1525 1521 1519 1521 1519 1517 1518 1515 1513 1512 1511 1511 1511 1511 1511 1511 1511 1512 1513 1514 1515 1516 1517 1518 1518 1519 1521 1522 1523 1524 1525 1527 1528 1529 1530 1531 1532 1532 1533 1535 1536 1537 1538 1540 1541 1542 1544 1545 1546 1547 1549 1551 1552 1553 1555 1556 1558 1560 1561
1549 1553 1555 1556 1558 1557 1559 1560 1560 1558 1557 1559 1560 1557 1554 1555 1559 1562 1564 1564 1560 1561 1565 1564 1556 1537 1524 1524 1519 1515 1517 1515 1514 1515 1512 1509 1508 1509 1508 1507 1507 1507 1507 1508 1509 1510 1511 1511 1513 1513 1514 1515 1515 1517 1518 1519 1520 1521 1523 1524 1524 1525 1527 1528 1528 1530 1531 1532 1534 1534 1535 1536 1537 1538 1539 1540 1542 1544 1546 1548 1550 1552 1553 1555 1557 1558
1550 1554 1555 1555 1557 1559 1560 1559 1558 1557 1557 1558 1558 1557 1557 1557 1560 1563 1564 1563 1560 1559 1565 1568 1562 1549 1533 1519 1512 1514 1515 1512 1512 1512 1508 1505 1504 1505 1505 1504 1504 1504 1504 1504 1505 1506 1507 1508 1509 1510 1511 1512 1513 1514 1514 1515 1516 1517 1518 1519 1520 1521 1522 1523 1524 1525 1527 1528 1529 1530 1532 1533 1533 1534 1536 1537 1539 1541 1544 1546 1548 1549 1550 1552 1553 1555
1550 1555 1556 1555 1556 1559 1559 1557 1556 1556 1557 1558 1560 1561 1560 1560 1562 1563 1563 1563 1562 1563 1565 1566 1564 1563 1549 1522 1511 1517 1517 1511 1510 1507 1503 1501 1501 1502 1502 1502 1501 1501 1501 1502 1502 1503 1504 1505 1506 1507 1508 1509 1510 1510 1510 1511 1511 1512 1513 1514 1516 1517 1518 1519 1520 1521 1523 1524 1525 1527 1528 1530 1530 1532 1533 1535 1538 1540 1541 1543 1545 1546 1548 1549 1550 1551
1549 1553 1554 1554 1555 1556 1554 1554 1554 1555 1556 1559 1564 1564 1562 1562 1563 1563 1563 1564 1567 1567 1563 1563 1565 1563 1546 1520 1513 1519 1517 1511 1506 1501 1498 1497 1498 1500 1500 1500 1500 1500 1500 1500 1501 1501 1502 1503 1504 1505 1506 1506 1507 1507 1507 1507 1508 1509 1510 1511 1512 1513 1514 1515 1516 1518 1519 1520 1522 1524 1525 1526 1527 1529 1531 1533 1535 1537 1538 1540 1542 1543 1545 1546 1546 1547
1550 1551 1552 1552 1552 1551 1552 1556 1557 1555 1556 1561 1565 1563 1563 1565 1565 1566 1565 1563 1568 1566 1558 1560 1562 1556 1535 1512 1511 1519 1516 1508 1500 1496 1495 1494 1496 1498 1498 1499 1499 1499 1499 1500 1500 1501 1502 1502 1503 1504 1504 1505 1505 1505 1505 1505 1505 1506 1506 1507 1508 1509 1510 1510 1512 1514 1516 1517 1519 1520 1521 1523 1524 1526 1528 1530 1532 1534 1536 1537 1539 1540 1541 1542 1543 1544
1551 1552 1552 1552 1551 1550 1554 1559 1560 1558 1558 1561 1562 1561 1563 1565 1564 1566 1565 1563 1565 1560 1555 1558 1557 1555 1538 1509 1502 1509 1507 1501 1496 1494 1494 1493 1495 1496 1497 1498 1497 1498 1499 1499 1500 1500 1501 1502 1502 1503 1503 1503 1503 1503 1503 1502 1502 1503 1503 1503 1504 1505 1506 1507 1509 1511 1512 1514 1515 1516 1518 1519 1521 1522 1524 1526 1527 1530 1531 1533 1534 1536 1538 1539 1540 1541
1552 1552 1552 1551 1551 1552 1554 1558 1561 1562 1560 1560 1558 1558 1562 1563 1565 1566 1566 1568 1565 1556 1559 1567 1565 1564 1545 1511 1499 1502 1501 1500 1498 1496 1494 1493 1495 1495 1496 1497 1496 1498 1498 1498 1499 1499 1501 1501 1501 1502 1501 1501 1501 1500 1500 1500 1500 1500 1500 1501 1501 1502 1503 1504 1506 1508 1509 1511 1512 1513 1515 1516 1518 1519 1520 1521 1523 1525 1527 1529 1531 1533 1534 1535 1536 1538
1549 1549 1550 1551 1551 1552 1551 1555 1564 1565 1562 1560 1556 1558 1561 1563 1567 1566 1565 1570 1564 1557 1566 1572 1570 1563 1535 1505 1501 1500 1497 1498 1498 1496 1495 1494 1494 1495 1496 1496 1495 1496 1497 1497 1498 1498 1499 1499 1498 1499 1499 1498 1498 1498 1498 1498 1498 1498 1498 1499 1499 1499 1500 1501 1503 1504 1506 1507 1508 1510 1512 1513 1515 1515 1517 1519 1520 1522 1524 1526 1528 1529 1531 1532 1533 1534
1547 1547 1550 1551 1550 1550 1546 1549 1558 1561 1561 1557 1552 1554 1557 1563 1571 1569 1569 1574 1565 1560 1570 1573 1568 1555 1524 1501 1497 1494 1490 1493 1494 1494 1494 1493 1493 1493 1494 1495 1494 1494 1495 1495 1496 1496 1496 1496 1496 1496 1496 1496 1496 1496 1496 1495 1495 1496 1496 1496 1497 1497 1498 1499 1499 1501 1503 1504 1505 1507 1509 1510 1511 1512 1514 1516 1517 1519 1522 1523 1525 1527 1528 1529 1531 1532
1544 1542 1541 1543 1542 1543 1542 1540 1543 1547 1553 1553 1547 1549 1551 1552 1556 1557 1560 1561 1556 1560 1572 1576 1565 1541 1516 1499 1492 1490 1490 1490 1491 1491 1492 1492 1491 1491 1490 1491 1491 1492 1493 1493 1494 1494 1494 1494 1494 1494 1494 1494 1494 1494 1493 1493 1493 1494 1494 1494 1495 1495 1496 1496 1497 1498 1500 1501 1502 1504 1505 1507 1507 1509 1512 1513 1515 1517 1519 1521 1522 1524 1526 1527 1529 1530
1542 1534 1531 1536 1536 1536 1538 1537 1538 1542 1550 1553 1551 1552 1550 1540 1540 1553 1564 1561 1560 1564 1566 1567 1552 1521 1503 1494 1488 1490 1489 1486 1487 1487 1489 1490 1489 1490 1488 1486 1487 1489 1490 1492 1492 1492 1492 1492 1492 1492 1492 1492 1492 1492 1492 1492 1492 1492 1492 1492 1493 1493 1494 1494 1494 1495 1497 1498 1499 1500 1502 1503 1504 1506 1508 1510 1512 1514 1516 1518 1520 1521 1523 1525 1527 1528
1538 1534 1534 1538 1536 1537 1538 1537 1539 1540 1544 1552 1553 1550 1546 1540 1539 1553 1570 1573 1572 1564 1549 1547 1538 1512 1501 1492 1482 1486 1486 1482 1484 1484 1485 1486 1485 1488 1486 1483 1485 1487 1488 1490 1490 1491 1491 1491 1491 1491 1491 1491 1491 1491 1490 1490 1490 1490 1490 1490 1491 1491 1491 1491 1492 1493 1494 1495 1496 1497 1498 1500 1501 1503 1505 1506 1509 1511 1513 1515 1516 1518 1520 1522 1524 1525
1527 1530 1536 1540 1538 1539 1540 1539 1540 1539 1539 1546 1549 1543 1541 1546 1544 1545 1556 1565 1568 1560 1544 1538 1530 1514 1508 1496 1480 1483 1486 1481 1482 1481 1481 1482 1481 1482 1481 1481 1485 1485 1486 1488 1488 1489 1489 1489 1490 1489 1490 1490 1489 1490 1489 1489 1489 1488 1488 1489 1489 1489 1489 1489 1490 1490 1491 1492 1493 1494 1495 1496 1498 1500 1502 1504 1506 1508 1510 1512 1513 1515 1517 1519 1521 1522
1523 1527 1535 1542 1541 1539 1540 1540 1541 1541 1541 1541 1541 1539 1540 1546 1547 1545 1549 1552 1554 1555 1544 1533 1527 1518 1509 1494 1480 1481 1483 1480 1480 1479 1479 1478 1477 1477 1476 1478 1482 1483 1484 1485 1486 1487 1487 1488 1488 1488 1488 1488 1488 1488 1488 1488 1488 1487 1487 1487 1487 1487 1487 1487 1487 1487 1488 1489 1489 1490 1491 1493 1495 1497 1499 1501 1503 1506 1507 1509 1511 1513 1514 1516 1517 1518
1523 1524 1531 1541 1542 1540 1541 1540 1537 1537 1542 1543 1540 1540 1542 1540 1539 1539 1541 1538 1536 1541 1537 1527 1522 1511 1493 1483 1479 1478 1477 1478 1477 1476 1476 1476 1475 1474 1475 1476 1478 1479 1480 1482 1483 1485 1486 1486 1487 1487 1487 1487 1487 1487 1487 1487 1487 1486 1486 1486 1485 1485 1485 1485 1484 1484 1485 1486 1486 1487 1488 1490 1492 1494 1497 1499 1500 1502 1504 1506 1508 1510 1512 1513 1515 1516
1523 1524 1526 1538 1544 1540 1536 1531 1526 1526 1533 1540 1539 1539 1541 1539 1539 1539 1535 1531 1529 1530 1531 1527 1519 1497 1475 1472 1476 1475 1474 1474 1474 1474 1475 1475 1473 1474 1475 1475 1476 1476 1477 1479 1481 1482 1484 1484 1485 1485 1485 1486 1485 1485 1485 1485 1485 1485 1485 1484 1484 1483 1483 1482 1482 1482 1482 1483 1483 1484 1485 1487 1489 1492 1494 1496 1498 1499 1502 1503 1505 1507 1509 1510 1512 1513
1520 1521 1523 1535 1540 1532 1524 1521 1521 1521 1521 1525 1526 1527 1527 1528 1535 1539 1534 1533 1534 1530 1528 1529 1521 1493 1469 1469 1473 1472 1473 1473 1473 1475 1474 1474 1474 1474 1475 1475 1475 1476 1476 1478 1478 1479 1481 1481 1482 1483 1483 1484 1484 1483 1482 1482 1483 1483 1483 1483 1482 1481 1481 1480 1480 1480 1480 1480 1480 1481 1482 1484 1487 1489 1491 1493 1494 1496 1498 1500 1502 1504 1506 1507 1509 1510
1513 1517 1520 1526 1527 1522 1521 1523 1526 1524 1521 1521 1521 1518 1516 1517 1522 1525 1526 1530 1536 1535 1530 1531 1527 1496 1467 1469 1475 1472 1474 1475 1475 1476 1475 1473 1473 1473 1474 1475 1475 1475 1475 1477 1477 1477 1478 1479 1479 1480 1480 1481 1481 1480 1479 1479 1480 1481 1481 1480 1480 1479 1479 1478 1478 1477 1477 1477 1478 1478 1480 1481 1483 1485 1487 1489 1490 1492 1495 1497 1499 1501 1502 1504 1506 1508
1513 1517 1518 1519 1518 1519 1523 1524 1525 1526 1525 1523 1519 1516 1518 1517 1515 1517 1522 1525 1527 1529 1528 1531 1531 1501 1469 1470 1477 1474 1476 1477 1475 1475 1474 1473 1472 1472 1474 1475 1474 1474 1474 1474 1475 1476 1476 1477 1477 1478 1478 1479 1478 1476 1476 1476 1478 1479 1479 1478 1477 1476 1476 1476 1475 1475 1474 1474 1475 1476 1477 1478 1479 1481 1482 1484 1486 1489 1491 1494 1496 1498 1499 1501 1503 1504
1511 1515 1516 1518 1520 1521 1524 1524 1524 1525 1525 1521 1514 1515 1517 1516 1518 1522 1526 1527 1524 1521 1518 1520 1519 1496 1470 1469 1476 1475 1476 1475 1473 1473 1473 1472 1472 1471 1473 1474 1474 1474 1473 1473 1473 1474 1474 1475 1475 1475 1476 1475 1474 1473 1474 1474 1475 1476 1476 1476 1475 1474 1474 1473 1473 1472 1472 1472 1472 1472 1473 1474 1475 1477 1478 1480 1483 1485 1488 1491 1493 1495 1496 1498 1499 1501
1506 1509 1510 1515 1518 1517 1515 1512 1509 1511 1518 1520 1515 1514 1514 1513 1516 1519 1521 1525 1522 1514 1511 1511 1505 1488 1470 1467 1472 1473 1474 1473 1471 1471 1471 1471 1470 1469 1470 1472 1472 1472 1471 1471 1471 1471 1472 1472 1472 1473 1472 1472 1471 1471 1472 1473 1472 1473 1473 1473 1472 1471 1471 1471 1470 1470 1469 1469 1469 1469 1469 1470 1471 1473 1474 1477 1479 1482 1485 1487 1489 1491 1493 1494 1496 1498
1506 1506 1504 1505 1504 1500 1495 1492 1491 1497 1508 1513 1510 1508 1509 1510 1511 1513 1515 1516 1513 1508 1505 1501 1496 1486 1472 1465 1467 1468 1469 1470 1469 1469 1469 1468 1468 1468 1468 1468 1469 1469 1469 1469 1469 1469 1468 1468 1469 1469 1469 1469 1469 1469 1470 1470 1470 1470 1470 1469 1469 1469 1468 1468 1468 1467 1467 1466 1466 1465 1465 1466 1467 1469 1471 1473 1476 1479 1482 1484 1486 1488 1489 1491 1492 1494
1506 1506 1503 1501 1497 1492 1486 1484 1487 1493 1497 1499 1499 1500 1504 1506 1509 1513 1512 1504 1502 1505 1500 1489 1486 1486 1476 1467 1463 1461 1463 1467 1467 1466 1467 1466 1466 1467 1466 1466 1466 1466 1467 1467 1466 1464 1464 1465 1465 1465 1466 1466 1466 1466 1467 1467 1467 1467 1466 1466 1466 1465 1465 1465 1464 1464 1463 1463 1462 1462 1462 1463 1464 1466 1468 1470 1473 1475 1478 1480 1482 1484 1485 1487 1488 1490
1505 1505 1501 1500 1498 1493 1488 1485 1487 1491 1491 1491 1492 1493 1496 1501 1506 1509 1505 1496 1494 1497 1490 1478 1477 1479 1475 1468 1459 1454 1457 1461 1462 1463 1465 1465 1465 1465 1464 1463 1463 1463 1464 1464 1462 1461 1461 1461 1462 1462 1463 1462 1462 1463 1463 1464 1463 1463 1463 1463 1462 1462 1462 1461 1461 1460 1460 1459 1459 1459 1459 1460 1461 1462 1464 1467 1469 1471 1473 1476 1478 1480 1481 1483 1484 1486
1503 1504 1500 1500 1501 1496 1491 1487 1487 1490 1492 1491 1491 1491 1492 1496 1499 1499 1495 1489 1485 1482 1478 1475 1473 1470 1466 1460 1453 1450 1455 1458 1459 1461 1462 1463 1464 1463 1462 1461 1460 1461 1461 1460 1459 1459 1459 1458 1459 1459 1459 1459 1459 1459 1459 1459 1459 1459 1459 1459 1458 1458 1458 1457 1457 1456 1456 1455 1455 1455 1456 1457 1457 1459 1460 1462 1465 1467 1469 1472 1474 1476 1478 1479 1481 1483
1501 1501 1499 1501 1504 1499 1491 1487 1485 1489 1493 1493 1492 1492 1492 1492 1493 1492 1487 1483 1482 1481 1478 1477 1476 1466 1455 1452 1452 1452 1454 1456 1457 1458 1459 1459 1460 1460 1459 1458 1458 1458 1457 1456 1456 1456 1456 1456 1456 1456 1455 1455 1455 1455 1455 1455 1455 1454 1455 1454 1454 1454 1453 1453 1453 1452 1452 1452 1452 1452 1452 1453 1454 1455 1456 1458 1461 1463 1466 1468 1470 1472 1474 1476 1478 1479
1502 1502 1501 1504 1507 1498 1488 1486 1487 1489 1494 1497 1494 1490 1487 1485 1484 1484 1483 1482 1482 1482 1480 1481 1478 1464 1449 1449 1454 1452 1451 1454 1454 1454 1455 1455 1454 1455 1455 1455 1456 1455 1453 1453 1453 1453 1452 1452 1452 1452 1451 1451 1451 1451 1451 1451 1450 1450 1450 1450 1449 1449 1449 1448 1448 1448 1448 1448 1448 1448 1449 1449 1450 1451 1453 1455 1457 1460 1462 1465 1467 1469 1471 1473 1474 1476
1498 1501 1502 1503 1503 1494 1484 1485 1489 1492 1498 1496 1484 1475 1471 1471 1473 1477 1480 1478 1474 1474 1475 1473 1466 1455 1447 1449 1451 1447 1448 1452 1451 1450 1452 1451 1450 1452 1451 1451 1451 1450 1449 1449 1449 1449 1448 1447 1448 1448 1447 1448 1448 1448 1448 1447 1445 1444 1445 1445 1444 1444 1443 1444 1444 1444 1444 1444 1445 1445 1445 1446 1447 1448 1450 1451 1454 1456 1459 1462 1464 1465 1468 1470 1472 1473
1493 1496 1497 1498 1498 1490 1483 1487 1492 1494 1491 1478 1460 1455 1458 1462 1468 1471 1469 1465 1462 1464 1465 1461 1454 1450 1448 1447 1444 1443 1446 1449 1449 1448 1448 1447 1447 1447 1445 1445 1445 1444 1444 1444 1443 1443 1443 1443 1443 1444 1444 1444 1444 1443 1443 1442 1440 1440 1439 1439 1439 1439 1439 1439 1439 1440 1440 1441 1441 1441 1442 1443 1444 1445 1446 1448 1450 1453 1455 1458 1461 1463 1465 1467 1468 1469
1491 1493 1493 1494 1494 1488 1484 1489 1491 1483 1471 1458 1450 1451 1455 1456 1458 1459 1456 1453 1453 1457 1460 1459 1454 1448 1442 1439 1438 1441 1445 1446 1446 1444 1442 1441 1441 1441 1440 1440 1439 1439 1438 1436 1437 1437 1437 1438 1439 1440 1440 1440 1439 1438 1437 1437 1436 1435 1434 1434 1434 1434 1434 1435 1435 1436 1436 1437 1437 1438 1438 1439 1440 1441 1443 1445 1447 1449 1452 1455 1458 1460 1462 1463 1465 1466
1485 1488 1488 1490 1490 1487 1484 1485 1478 1463 1454 1453 1452 1450 1452 1452 1451 1454 1454 1448 1445 1449 1453 1453 1446 1438 1434 1433 1436 1442 1444 1443 1442 1437 1432 1433 1435 1436 1435 1433 1432 1432 1430 1429 1430 1432 1433 1435 1435 1435 1435 1434 1433 1433 1432 1431 1431 1430 1429 1429 1429 1429 1430 1431 1431 1432 1433 1433 1434 1434 1435 1436 1437 1439 1440 1442 1444 1446 1449 1452 1455 1458 1460 1461 1462 1464
1477 1481 1483 1484 1483 1481 1479 1474 1466 1459 1455 1454 1448 1442 1443 1445 1444 1449 1452 1442 1434 1438 1442 1440 1434 1429 1428 1431 1436 1442 1442 1443 1440 1426 1417 1424 1430 1430 1428 1425 1425 1426 1425 1424 1426 1427 1429 1430 1429 1429 1429 1428 1427 1427 1427 1427 1427 1426 1426 1426 1425 1426 1426 1427 1428 1428 1429 1430 1430 1431 1432 1433 1435 1436 1437 1439 1441 1443 1446 1449 1452 1455 1457 1458 1460 1461
1471 1473 1476 1477 1473 1472 1474 1469 1465 1463 1456 1446 1437 1431 1433 1437 1437 1442 1447 1440 1430 1427 1430 1431 1427 1425 1426 1430 1435 1438 1440 1444 1437 1415 1405 1416 1423 1420 1419 1419 1419 1420 1420 1420 1421 1422 1423 1424 1423 1423 1423 1422 1423 1423 1423 1423 1423 1423 1423 1422 1422 1423 1423 1423 1424 1425 1426 1427 1428 1429 1430 1431 1432 1434 1435 1437 1439 1442 1445 1447 1450 1453 1455 1456 1457 1459
1465 1466 1469 1471 1467 1466 1468 1463 1457 1453 1444 1435 1429 1426 1429 1433 1434 1439 1447 1442 1426 1416 1419 1425 1423 1422 1424 1426 1429 1434 1438 1441 1430 1408 1402 1410 1413 1411 1413 1414 1414 1415 1415 1415 1416 1417 1418 1418 1418 1419 1419 1419 1419 1420 1420 1420 1420 1419 1419 1419 1419 1419 1419 1420 1421 1422 1423 1424 1425 1426 1427 1428 1430 1432 1434 1436 1438 1441 1443 1446 1448 1451 1453 1454 1455 1456
1462 1463 1464 1464 1461 1460 1459 1454 1447 1441 1435 1429 1426 1425 1427 1430 1432 1440 1447 1438 1416 1406 1412 1418 1418 1418 1419 1419 1424 1429 1431 1428 1417 1404 1402 1406 1407 1408 1410 1409 1409 1410 1411 1411 1413 1413 1414 1415 1415 1415 1415 1416 1416 1416 1416 1416 1416 1416 1416 1416 1416 1416 1417 1418 1418 1419 1421 1421 1422 1424 1425 1426 1429 1430 1432 1435 1437 1439 1442 1444 1447 1449 1451 1452 1454 1455
1456 1457 1456 1454 1454 1454 1452 1447 1440 1433 1430 1427 1424 1423 1426 1429 1431 1433 1430 1419 1406 1403 1408 1410 1410 1412 1412 1413 1418 1420 1416 1411 1407 1402 1401 1403 1404 1405 1406 1405 1406 1407 1407 1408 1409 1410 1411 1412 1412 1413 1413 1413 1413 1413 1413 1413 1413 1413 1413 1413 1414 1414 1415 1416 1416 1417 1418 1419 1420 1422 1423 1425 1427 1429 1431 1433 1435 1438 1441 1443 1446 1448 1449 1451 1452 1453
1451 1451 1449 1448 1448 1447 1445 1443 1438 1431 1424 1422 1421 1421 1425 1428 1426 1418 1410 1405 1404 1404 1404 1404 1404 1406 1406 1407 1409 1408 1405 1403 1403 1401 1399 1400 1401 1402 1403 1403 1403 1403 1404 1405 1406 1407 1408 1409 1410 1410 1410 1410 1411 1411 1411 1411 1411 1411 1411 1412 1412 1413 1413 1414 1415 1416 1417 1418 1419 1420 1422 1423 1425 1427 1429 1432 1434 1437 1440 1442 1444 1446 1448 1449 1450 1452
1445 1446 1443 1441 1441 1441 1440 1439 1438 1431 1422 1417 1418 1421 1423 1420 1414 1408 1405 1405 1405 1404 1403 1402 1402 1402 1403 1402 1402 1401 1401 1400 1400 1399 1398 1397 1398 1399 1400 1400 1400 1401 1402 1402 1403 1404 1405 1406 1407 1407 1408 1408 1409 1409 1409 1409 1409 1410 1410 1410 1411 1411 1412 1413 1414 1415 1416 1417 1419 1420 1421 1423 1424 1426 1429 1431 1434 1436 1439 1441 1443 1444 1446 1448 1449 1451
1440 1440 1437 1433 1434 1436 1434 1430 1427 1425 1422 1421 1420 1421 1421 1417 1411 1409 1408 1406 1404 1404 1403 1401 1400 1400 1400 1399 1398 1398 1398 1397 1397 1396 1395 1395 1396 1396 1396 1397 1398 1398 1399 1400 1401 1402 1402 1403 1404 1405 1405 1406 1406 1407 1407 1407 1408 1408 1409 1409 1410 1411 1411 1412 1413 1414 1416 1417 1419 1420 1421 1423 1425 1427 1429 1431 1434 1436 1439 1441 1442 1444 1445 1447 1448 1450
1434 1432 1433 1433 1434 1435 1432 1428 1425 1423 1422 1423 1421 1420 1420 1419 1416 1413 1411 1408 1405 1404 1402 1400 1399 1399 1399 1398 1396 1395 1394 1393 1393 1392 1392 1393 1393 1394 1394 1395 1395 1396 1397 1397 1398 1399 1400 1401 1402 1403 1403 1404 1404 1405 1405 1406 1407 1408 1408 1409 1410 1411 1411 1412 1413 1414 1415 1417 1419 1420 1422 1423 1425 1427 1430 1432 1434 1436 1438 1440 1442 1443 1444 1446 1447 1449
1428 1429 1433 1434 1434 1433 1430 1428 1427 1424 1420 1419 1418 1417 1417 1417 1415 1412 1411 1409 1407 1404 1402 1400 1398 1396 1397 1397 1395 1393 1391 1390 1389 1388 1389 1390 1392 1393 1393 1393 1393 1394 1394 1395 1396 1397 1398 1399 1400 1401 1402 1403 1403 1404 1404 1405 1407 1408 1408 1409 1410 1411 1412 1412 1413 1414 1416 1417 1419 1421 1423 1424 1426 1428 1430 1433 1435 1437 1439 1440 1442 1443 1444 1446 1447 1449
1426 1428 1430 1430 1430 1431 1427 1422 1421 1421 1420 1418 1417 1415 1413 1412 1412 1410 1409 1406 1405 1403 1401 1399 1397 1395 1394 1394 1392 1391 1389 1388 1387 1387 1387 1388 1389 1390 1391 1391 1391 1392 1392 1393 1394 1395 1396 1397 1398 1400 1401 1402 1403 1403 1404 1405 1407 1409 1410 1410 1410 1411 1412 1413 1414 1415 1417 1418 1420 1422 1424 1425 1427 1429 1431 1433 1435 1437 1438 1440 1442 1444 1445 1447 1449 1450
1425 1426 1427 1425 1425 1425 1422 1417 1416 1417 1417 1416 1415 1412 1409 1408 1408 1407 1406 1404 1402 1401 1399 1397 1396 1394 1392 1391 1390 1389 1387 1387 1387 1386 1386 1386 1387 1388 1388 1389 1389 1390 1391 1392 1393 1394 1395 1396 1397 1399 1401 1402 1403 1403 1404 1405 1407 1409 1410 1411 1412 1412 1412 1413 1415 1416 1418 1420 1421 1423 1425 1427 1429 1430 1432 1434 1435 1437 1438 1440 1442 1444 1446 1448 1450 1451
1428 1428 1426 1423 1420 1419 1418 1416 1414 1414 1412 1411 1410 1408 1407 1406 1405 1404 1403 1402 1400 1399 1398 1396 1394 1392 1390 1389 1388 1387 1386 1386 1385 1385 1386 1386 1386 1386 1387 1387 1387 1388 1389 1390 1392 1393 1394 1396 1398 1400 1401 1402 1403 1404 1405 1406 1407 1409 1411 1413 1414 1413 1413 1414 1416 1417 1419 1421 1422 1424 1426 1428 1430 1432 1433 1435 1436 1438 1439 1441 1443 1445 1446 1448 1449 1451
1430 1429 1426 1424 1422 1419 1416 1414 1413 1413 1410 1407 1405 1406 1406 1405 1404 1402 1400 1399 1398 1397 1396 1394 1392 1390 1388 1387 1387 1387 1386 1385 1385 1385 1386 1386 1386 1387 1387 1386 1387 1388 1389 1390 1391 1393 1394 1396 1399 1401 1402 1403 1404 1405 1406 1407 1408 1409 1411 1413 1414 1415 1415 1415 1416 1418 1420 1422 1424 1426 1428 1429 1432 1433 1435 1436 1438 1439 1440 1441 1443 1444 1446 1448 1449 1450
1425 1424 1423 1422 1420 1415 1412 1410 1411 1412 1410 1405 1403 1404 1404 1403 1401 1400 1398 1396 1395 1394 1393 1392 1391 1389 1387 1387 1387 1387 1386 1386 1386 1386 1386 1386 1386 1386 1387 1388 1388 1389 1390 1391 1392 1394 1395 1398 1400 1402 1403 1404 1405 1405 1406 1408 1409 1410 1411 1413 1414 1415 1416 1416 1417 1419 1421 1423 1425 1427 1429 1431 1432 1434 1436 1437 1438 1439 1441 1442 1443 1444 1446 1447 1449 1450